Powrót do katalogu

FENGYUN 1C DEB

AktywnySSO
NORAD 30377·DEBRIS·🇨🇳 China

Wystrzelony May 10, 1999 z Taiyuan Satellite Launch Center

Loading…

Następne Przeloty (najbliższe 24 godziny)

TLE

ŚwieżeSource: Space-Track

Epoka: Sep 14, 2026, 00:54 UTC

1 30377U 99025ACQ 26257.03766088  .00000317  00000-0  23320-3 0  9999
2 30377  98.8786 273.4251 0117670 223.6239 160.6184 13.99431794   580

Śledź FENGYUN 1C DEB w czasie rzeczywistym z AllMySat

Download on the App Store